Location: *
(45.9500°N, 9.0833°E)
Time: 15:00:49
(UTC+00:00)

Cosmos 2219 Rocket - Pass Details

Date: 03 March 2021
Orbit: 826 x 848 km, 71.0° (Epoch: 14 April)

Event Time Altitude Azimuth Distance (km) Brightness Sun altitude
Rises 21:08:43 0° 249° (WSW) 3,363 5.6 -39.4°
Reaches altitude 10° 21:11:43 10° 265° (W) 2,435 5.0 -39.8°
Maximum altitude 21:15:56 21° 314° (NW) 1,773 4.4 -40.4°
Drops below altitude 10° 21:20:11 10° 4° (N) 2,454 4.9 -40.9°
Sets 21:23:14 0° 20° (NNE) 3,396 5.6 -41.3°
